Left ArrowRight Arrow

36.17497, -115.13722

Hourly Observations for June 21, 2024

Temp ( °F °C ) Dew Point ( °F °C ) Humidity (%) Winds ( mph kmh ) Pressure ( in mb ) Visibility ( mi km ) Precip ( " mm )
12:53 am 00:53 Clear 89 31.7 36 2.2 15 15 WNW 3 6 29.63 1004 10 16 0.00 0.00
1:53 am 01:53 Clear 84 28.9 36 2.2 18 18 Calm 29.64 1004 10 16 0.00 0.00
2:53 am 02:53 Clear 81 27.2 34 1.1 18 18 NW 6 9 29.64 1004 10 16 0.00 0.00
3:53 am 03:53 Clear 80 26.7 34 1.1 19 19 NNW 8 13 29.65 1004 10 16 0.00 0.00
4:53 am 04:53 Clear 80 26.7 34 1.1 19 19 N 6 9 29.66 1004 10 16 0.00 0.00
5:53 am 05:53 Sunny 81 27.2 37 2.8 21 21 W 5 7 29.69 1005 10 16 0.00 0.00
6:53 am 06:53 Sunny 83 28.3 37 2.8 19 19 Calm 29.70 1006 10 16 0.00 0.00
7:53 am 07:53 Sunny 88 31.1 37 2.8 17 17 Calm 29.72 1006 10 16 0.00 0.00
8:53 am 08:53 Sunny 91 32.8 37 2.8 15 15 NE 3 6 29.73 1007 10 16 0.00 0.00
9:53 am 09:53 Sunny 94 34.4 36 2.2 13 13 SE 6 9 29.73 1007 10 16 0.00 0.00
10:53 am 10:53 Sunny 96 35.6 38 3.3 13 13 SE 8 13 29.73 1007 10 16 0.00 0.00
11:53 am 11:53 Sunny 99 37.2 38 3.3 12 12 Calm 29.72 1007 10 16 0.00 0.00
12:53 pm 12:53 Sunny 100 37.8 38 3.3 12 12 SE 6 9 29.72 1006 10 16 0.00 0.00
1:53 pm 13:53 Sunny 102 38.9 37 2.8 11 11 SE 9 15 29.70 1006 10 16 0.00 0.00
2:53 pm 14:53 Sunny 105 40.6 35 1.7 9 9 VRB 3 6 29.67 1005 10 16 0.00 0.00
3:53 pm 15:53 Sunny 105 40.6 35 1.7 9 9 VRB 6 9 29.64 1004 10 16 0.00 0.00
4:53 pm 16:53 Sunny 106 41.1 35 1.7 9 9 ESE 13 20 29.62 1003 10 16 0.00 0.00
5:53 pm 17:53 Sunny 107 41.7 31 -0.6 7 7 SSW 10 17 29.61 1003 10 16 0.00 0.00
6:53 pm 18:53 Sunny 105 40.6 30 -1.1 7 7 SE 5 7 29.62 1003 10 16 0.00 0.00
7:53 pm 19:53 Sunny 103 39.4 30 -1.1 8 8 WSW 15 24 29.64 1004 10 16 0.00 0.00
8:53 pm 20:53 Clear 100 37.8 31 -0.6 9 9 WSW 12 19 29.66 1004 10 16 0.00 0.00
9:53 pm 21:53 Clear 97 36.1 32 0 10 10 N 5 7 29.69 1006 10 16 0.00 0.00
10:53 pm 22:53 Clear 95 35 31 -0.6 10 10 Calm 29.71 1006 10 16 0.00 0.00
11:53 pm 23:53 Clear 91 32.8 34 1.1 13 13 Calm 29.73 1007 10 16 0.00 0.00

Powered by Vaisala Xweather